Погода в Форсса

Финляндия     60°48′55″N   23°37′31″E
темп.,
°C
ветер,
м/с
пор.,
м/с
влажн.,
%
обл.,
%
осадки,
мм/ч
давл.,
гПа
погр.,
м
6 декабря, пн
пн623:00−16св38845 0.0 1026248
02:00−16св39885 0.0 1026237
05:00−15св399437 0.0 1025251
08:00−14всв399531 0.0 1024241
11:00−13св289310 0.0 1024239
14:00−12св28895 0.0 1022356
17:00−14всв279611 0.0 1022185
20:00−14св269752 0.0 1021143
7 декабря, вт
вт723:00−15св259710 0.0 1020113
02:00−15св259749 0.0 1019120
05:00−15ссв249754 0.0 101892
08:00−15ссв139972 0.0 101872
11:00−13с149780 0.0 1018130
14:00−13ссз149768 0.1 1018128
17:00−14ссз259741 0.0 1018107
20:00−15ссз26965 0.0 1018137
8 декабря, ср
ср823:00−15сз25965 0.0 1019115
02:00−16сз25975 0.0 1020110
05:00−16сз14975 0.0 102093
08:00−16сз14979 0.0 102175
11:00−14сз14939 0.0 102295
14:00−13сз13926 0.0 102271
17:00−15сз119721 0.0 102425
20:00−15ссв11975 0.0 102412
9 декабря, чт
чт923:00−16ссв11975 0.0 10259
02:00−16всв119710 0.0 10269
05:00−16в119753 0.0 102615
08:00−15в1198100 0.0 102714
11:00−13вюв2394100 0.0 102759
14:00−12вюв2491100 0.0 102773
17:00−13в259451 0.0 102771
20:00−12в3896100 0.0 1026137
10 декабря, пт
пт1023:00−11в3109655 0.0 1026161
02:00−10вюв3119651 0.0 1025221
05:00−9в4149572 0.0 1024354
08:00−8в5159482 0.0 1024444
11:00−7в5169295 0.0 1024494
14:00−7в5169292 0.0 1023494
17:00−9в5169265 0.0 1024463
20:00−9в5178832 0.0 1024473